TimeCST,TemperatureF,Dew PointF,Humidity,Sea Level PressureIn,VisibilityMPH,Wind Direction,Wind SpeedMPH,Gust SpeedMPH,PrecipitationIn,Events,Conditions,WindDirDegrees,DateUTC
12:01 AM,50.0,48.2,94,29.50,3.0,SE,3.5,-,0.02,Rain,Heavy Rain,130,2012-11-11 06:01:00
12:21 AM,50.0,48.2,94,29.48,4.0,SSE,3.5,-,0.05,Rain,Light Rain,150,2012-11-11 06:21:00
12:41 AM,48.2,46.4,93,29.50,4.0,South,5.8,-,0.05,Rain,Light Rain,170,2012-11-11 06:41:00
1:01 AM,48.2,46.4,93,29.48,5.0,SSE,4.6,-,N/A,,Mostly Cloudy,160,2012-11-11 07:01:00
1:21 AM,48.2,46.4,93,29.49,5.0,South,8.1,-,N/A,,Overcast,170,2012-11-11 07:21:00
1:40 AM,50.0,48.2,94,29.49,7.0,South,8.1,-,N/A,,Overcast,170,2012-11-11 07:40:00
2:01 AM,50.0,50.0,100,29.52,7.0,SSW,10.4,-,N/A,,Overcast,210,2012-11-11 08:01:00
2:21 AM,50.0,50.0,100,29.53,7.0,SW,11.5,19.6,N/A,,Overcast,230,2012-11-11 08:21:00
2:41 AM,50.0,48.2,94,29.53,7.0,WSW,9.2,20.7,N/A,,Overcast,240,2012-11-11 08:41:00
3:01 AM,48.2,46.4,93,29.54,7.0,West,13.8,18.4,N/A,,Overcast,260,2012-11-11 09:01:00
3:21 AM,44.6,42.8,93,29.55,5.0,West,18.4,24.2,N/A,,Overcast,260,2012-11-11 09:21:00
3:41 AM,42.8,41.0,93,29.56,10.0,West,13.8,17.3,N/A,,Overcast,260,2012-11-11 09:41:00
4:01 AM,41.0,37.4,87,29.57,10.0,WSW,9.2,17.3,N/A,,Overcast,250,2012-11-11 10:01:00
4:21 AM,39.2,35.6,87,29.60,10.0,WSW,12.7,-,N/A,,Overcast,250,2012-11-11 10:21:00
4:41 AM,37.4,33.8,87,29.60,10.0,WSW,11.5,-,N/A,,Overcast,250,2012-11-11 10:41:00
5:01 AM,37.4,33.8,87,29.62,10.0,WSW,8.1,-,N/A,,Overcast,250,2012-11-11 11:01:00
5:41 AM,35.6,32.0,87,29.64,10.0,West,15.0,19.6,N/A,,Overcast,260,2012-11-11 11:41:00
6:01 AM,35.6,32.0,87,29.65,10.0,West,15.0,20.7,N/A,,Overcast,270,2012-11-11 12:01:00
6:21 AM,35.6,32.0,87,29.66,10.0,West,8.1,-,N/A,,Overcast,260,2012-11-11 12:21:00
6:41 AM,33.8,32.0,93,29.67,10.0,West,10.4,17.3,N/A,,Overcast,260,2012-11-11 12:41:00
7:01 AM,33.8,32.0,93,29.67,10.0,West,8.1,-,N/A,,Overcast,270,2012-11-11 13:01:00
7:41 AM,33.8,30.2,87,29.68,10.0,West,10.4,-,N/A,,Overcast,270,2012-11-11 13:41:00
8:01 AM,33.8,30.2,87,29.69,10.0,West,15.0,-,N/A,,Overcast,280,2012-11-11 14:01:00
8:21 AM,32.0,30.2,93,29.70,10.0,West,11.5,16.1,N/A,,Overcast,270,2012-11-11 14:21:00
8:41 AM,32.0,28.4,87,29.71,10.0,West,10.4,16.1,N/A,Snow,Light Snow,270,2012-11-11 14:41:00
9:01 AM,32.0,28.4,87,29.71,7.0,West,9.2,-,N/A,Snow,Light Snow,270,2012-11-11 15:01:00
9:21 AM,32.0,28.4,87,29.72,3.0,West,6.9,-,N/A,Snow,Light Snow,280,2012-11-11 15:21:00
9:41 AM,32.0,28.4,87,29.75,10.0,West,10.4,16.1,N/A,,Overcast,260,2012-11-11 15:41:00
10:01 AM,32.0,28.4,87,29.74,10.0,West,12.7,16.1,N/A,,Overcast,270,2012-11-11 16:01:00
10:21 AM,32.0,28.4,87,29.72,7.0,West,8.1,-,N/A,Snow,Light Snow,270,2012-11-11 16:21:00
10:41 AM,32.0,28.4,87,29.72,10.0,West,10.4,-,N/A,,Overcast,280,2012-11-11 16:41:00
11:01 AM,32.0,28.4,87,29.73,10.0,West,10.4,-,N/A,,Overcast,280,2012-11-11 17:01:00
11:21 AM,32.0,28.4,87,29.75,10.0,West,10.4,-,N/A,,Overcast,270,2012-11-11 17:21:00
11:41 AM,32.0,26.6,80,29.73,10.0,West,10.4,-,N/A,,Overcast,280,2012-11-11 17:41:00
12:21 PM,32.0,26.6,80,29.75,10.0,West,11.5,-,N/A,,Overcast,270,2012-11-11 18:21:00
12:41 PM,32.0,26.6,80,29.75,10.0,West,10.4,-,N/A,,Overcast,260,2012-11-11 18:41:00
1:01 PM,32.0,26.6,80,29.73,10.0,West,9.2,-,N/A,,Overcast,280,2012-11-11 19:01:00
1:21 PM,30.2,24.8,80,29.73,10.0,West,11.5,16.1,N/A,,Overcast,280,2012-11-11 19:21:00
1:41 PM,30.2,24.8,80,29.74,10.0,West,11.5,-,N/A,,Overcast,270,2012-11-11 19:41:00
2:01 PM,30.2,23.0,75,29.76,10.0,West,12.7,18.4,N/A,,Overcast,270,2012-11-11 20:01:00
2:21 PM,30.2,23.0,75,29.75,10.0,West,12.7,-,N/A,,Overcast,280,2012-11-11 20:21:00
2:41 PM,30.2,23.0,75,29.75,10.0,West,15.0,18.4,N/A,,Overcast,280,2012-11-11 20:41:00
3:01 PM,28.4,21.2,74,29.75,10.0,WNW,11.5,19.6,N/A,,Overcast,300,2012-11-11 21:01:00
3:21 PM,28.4,21.2,74,29.75,10.0,West,8.1,16.1,N/A,,Overcast,280,2012-11-11 21:21:00
3:41 PM,28.4,19.4,69,29.76,10.0,West,17.3,23.0,N/A,,Overcast,270,2012-11-11 21:41:00
4:01 PM,26.6,19.4,74,29.77,10.0,West,13.8,-,N/A,,Overcast,270,2012-11-11 22:01:00
4:21 PM,26.6,19.4,74,29.78,10.0,West,12.7,19.6,N/A,,Overcast,280,2012-11-11 22:21:00
4:41 PM,26.6,19.4,74,29.78,10.0,West,10.4,18.4,N/A,,Overcast,280,2012-11-11 22:41:00
5:01 PM,26.6,19.4,74,29.79,10.0,West,10.4,-,N/A,,Overcast,280,2012-11-11 23:01:00
5:21 PM,26.6,19.4,74,29.80,10.0,West,15.0,-,N/A,,Overcast,270,2012-11-11 23:21:00
5:41 PM,26.6,19.4,74,29.82,10.0,West,10.4,18.4,N/A,,Overcast,270,2012-11-11 23:41:00
6:01 PM,26.6,19.4,74,29.82,10.0,West,13.8,21.9,N/A,,Overcast,280,2012-11-12 00:01:00
6:21 PM,24.8,17.6,74,29.83,10.0,WNW,11.5,24.2,N/A,,Overcast,290,2012-11-12 00:21:00
6:41 PM,24.8,17.6,74,29.83,10.0,West,10.4,18.4,N/A,,Overcast,270,2012-11-12 00:41:00
7:01 PM,24.8,17.6,74,29.84,10.0,West,10.4,-,N/A,,Overcast,270,2012-11-12 01:01:00
7:21 PM,24.8,17.6,74,29.85,10.0,West,6.9,-,N/A,,Overcast,280,2012-11-12 01:21:00
7:41 PM,24.8,15.8,69,29.85,10.0,West,12.7,21.9,N/A,,Overcast,280,2012-11-12 01:41:00
8:01 PM,23.0,15.8,74,29.85,10.0,West,13.8,20.7,N/A,,Overcast,280,2012-11-12 02:01:00
8:21 PM,24.8,15.8,69,29.85,10.0,West,10.4,-,N/A,,Overcast,280,2012-11-12 02:21:00
8:41 PM,23.0,14.0,68,29.86,10.0,West,10.4,18.4,N/A,,Overcast,270,2012-11-12 02:41:00
9:01 PM,23.0,14.0,68,29.87,10.0,West,13.8,21.9,N/A,,Overcast,280,2012-11-12 03:01:00
9:21 PM,23.0,12.2,63,29.87,10.0,West,11.5,17.3,N/A,Snow,Light Snow,270,2012-11-12 03:21:00
9:41 PM,23.0,14.0,68,29.88,10.0,West,10.4,16.1,N/A,Snow,Light Snow,260,2012-11-12 03:41:00
10:01 PM,23.0,12.2,63,29.87,10.0,West,13.8,18.4,N/A,,Overcast,260,2012-11-12 04:01:00
10:21 PM,23.0,12.2,63,29.87,10.0,West,10.4,-,N/A,,Overcast,270,2012-11-12 04:21:00
10:41 PM,23.0,12.2,63,29.87,10.0,West,11.5,17.3,N/A,,Overcast,260,2012-11-12 04:41:00
11:01 PM,21.2,14.0,74,29.87,10.0,WSW,9.2,-,N/A,,Overcast,250,2012-11-12 05:01:00
11:21 PM,21.2,14.0,74,29.87,10.0,West,9.2,-,N/A,Snow,Light Snow,260,2012-11-12 05:21:00
11:41 PM,21.2,12.2,68,29.88,10.0,WSW,12.7,18.4,N/A,Snow,Light Snow,240,2012-11-12 05:41:00